Regional Weather Roundup
Issued by NWS Cleveland, OH

Home | Current Version | Previous Version | Graphics & Text | Print | Product List | Glossary On
Versions: 1 2 3 4 5 6 7 8 9 10 11 12 13 14 15 16 17 18 19 20 21 22 23 24 25 26 27 28 29 30 31 32 33 34 35 36 37 38 39 40 41 42 43 44 45 46 47 48 49 50
000
ASUS41 KCLE 270610
RWRCLE
OHIO REGIONAL WEATHER ROUNDUP
NATIONAL WEATHER SERVICE CLEVELAND, OH
200 AM EDT MON APR 27 2015

NOTE: "FAIR" INDICATES FEW OR NO CLOUDS BELOW 12,000 FEET WITH NO
SIGNIFICANT WEATHER AND/OR OBSTRUCTIONS TO VISIBILITY.

OHZ001>008-015>018-024>027-034-035-043-044-270700-
   NORTHWEST OHIO

CITY           SKY/WX    TMP DP  RH WIND       PRES   REMARKS
DEFIANCE       CLOUDY    48  34  58 E7        29.95R
FINDLAY        CLOUDY    46  32  58 NE7       29.94R
TOLEDO EXPRESS CLOUDY    44  32  62 E3        29.95S
TOLEDO EXEC    CLOUDY    42  33  70 CALM      29.96S
LIMA           CLOUDY    45  36  70 NE3       29.92R
$$

OHZ009>014-019>023-028>033-038-089-270700-
   NORTHEAST OHIO

CITY           SKY/WX    TMP DP  RH WIND       PRES   REMARKS
CLE-HOPKINS    PTCLDY    39  32  76 N7        29.92F
CLE-LAKEFRONT  PTCLDY    41  34  76 NW12      29.89F
CUY CO. ARPT   NOT AVBL
LORAIN-ELYRIA  PTCLDY    39  32  76 N6        29.91F
ASHTABULA      CLOUDY    39  33  79 NW3       29.86F
AKRON-CANTON   CLEAR     36  29  75 NW7       29.87S
WOOSTER        CLEAR     36  30  79 NW7       29.89S
MANSFIELD      CLEAR     35  28  75 NW8       29.91R WCI  29
YOUNGSTOWN     PTCLDY    37  31  78 NW7       29.84F
$$

OHZ042-051>053-060>062-070>072-077>081-270700-
  SOUTHWEST OHIO

CITY           SKY/WX    TMP DP  RH WIND       PRES   REMARKS
CINC-COVINGTON PTCLDY    41  33  73 CALM      29.92S
CINC-LUNKEN    CLEAR     39  38  96 CALM      29.94R
HAMILTON       PTCLDY    39  37  92 CALM      29.93S
DAYTON         PTCLDY    43  33  68 CALM      29.92F
WRIGHT-PAT AFB PTCLDY    38  35  87 W2        29.91F
DAYTON GENERAL CLEAR     42  33  70 N3        29.91S
WILMINGTON     CLEAR     41  31  67 N5        29.91S
$$

OHZ036-037-039>041-045>050-054>059-063>069-073>076-082>088-270700-
  CENTRAL AND SOUTHEAST OHIO

CITY           SKY/WX    TMP DP  RH WIND       PRES   REMARKS
COLUMBUS       CLEAR     39  32  76 CALM      29.90S
OSU AIRPORT    CLEAR     41  30  65 N3        29.90F
BOLTON FIELD   CLEAR     37  33  84 CALM      29.91S
RICKENBACK AFB CLEAR     42  31  64 N6        29.90F
NEWARK         CLEAR     36  31  82 CALM      29.89F
MARION         MOCLDY    38  31  76 N5        29.92S
LANCASTER      CLEAR     37  33  85 CALM      29.90S
ZANESVILLE     CLEAR     40  29  64 NW5       29.88S
NEW PHILLY     CLEAR     42  31  64 NW5       29.88S
$$


USA.gov is the U.S. government's official web portal to all federal, state and local government web resources and services.